Theta_e
331 330 330 332 336 339 342 343 343 344 345 345 343 343 343 343 343 342 341 342 342 342 341 340 339 339 340 340 340 339 339 338
330 330 331 334 335 337 341 344 345 344 344 345 344 343 342 342 342 341 341 341 342 342 341 340 340 340 340 340 341 341 340 340
331 329 332 334 335 338 341 344 346 347 345 344 343 343 342 342 341 342 341 341 342 342 342 341 340 340 341 341 341 341 341 340
331 332 331 331 333 336 340 342 345 346 347 346 345 344 343 343 342 343 343 343 342 342 342 342 341 341 342 342 341 342 342 341
335 335 333 331 331 331 332 340 343 346 347 347 347 346 345 344 344 343 344 345 344 343 343 342 342 342 342 342 343 342 342 342
336 336 335 335 331 329 330 331 337 343 345 348 347 348 347 346 346 346 345 346 346 346 344 344 343 343 343 343 342 342 342 344
333 335 335 337 340 335 336 338 338 340 344 346 348 347 348 348 348 348 348 348 348 348 347 345 345 344 344 344 343 342 341 340
332 332 332 333 335 338 339 338 339 341 344 346 347 348 348 348 348 348 348 348 348 348 347 346 343 342 342 342 342 342 340 340
329 329 329 329 330 332 333 333 336 340 343 344 346 346 347 347 347 348 348 347 347 347 346 344 342 341 341 340 340 340 339 339
328 329 328 329 328 330 331 330 329 330 332 335 338 341 343 344 346 347 346 347 346 346 347 346 344 341 340 340 340 340 339 339
329 329 328 329 329 330 331 330 330 329 330 330 331 332 335 338 341 344 345 345 346 346 346 344 345 343 341 339 339 339 339 338
328 329 329 329 329 329 329 330 330 330 330 331 332 333 334 335 337 340 342 343 343 344 342 342 342 341 341 340 340 339 338 337
328 328 329 329 328 326 326 326 327 329 330 332 333 333 334 334 335 337 338 340 339 338 338 339 339 339 338 337 337 336 335 334
327 328 328 326 325 324 323 323 323 322 322 323 324 325 328 331 332 332 333 334 334 335 337 338 338 338 338 337 336 335 335 333
328 328 327 324 323 323 322 322 321 321 321 321 321 321 322 323 324 325 326 328 330 330 332 332 332 332 333 333 333 332 332 331
327 326 325 323 323 322 321 320 319 319 319 318 318 318 318 319 320 320 320 321 322 323 323 325 325 326 326 328 329 330 329 328
326 325 323 322 321 321 319 318 317 316 315 314 314 314 314 315 315 315 316 317 317 318 319 320 320 321 319 317 318 318 319 323
323 323 322 321 319 318 316 315 314 313 313 312 312 311 312 312 312 312 313 313 313 314 314 314 315 312 311 311 311 313 312 311
322 322 320 317 316 314 314 313 312 312 311 310 310 310 310 310 310 310 310 310 311 310 310 309 308 302 304 305 305 304 303 303
Wind_Speed
20 17 19 22 22 24 27 28 30 28 26 27 25 26 28 27 27 27 27 28 29 30 29 27 25 25 25 25 25 24 24 23
22 12 15 19 21 22 27 27 28 27 28 27 27 27 27 28 28 28 28 29 29 31 30 28 29 28 28 25 26 25 26 22
8 9 12 15 19 21 23 27 27 28 27 28 27 26 26 27 26 28 30 29 31 30 32 30 29 30 29 28 28 25 26 26
3 6 8 12 18 22 24 25 26 28 27 24 23 23 23 24 27 27 29 30 31 32 31 32 30 30 30 32 31 30 25 25
5 3 1 5 12 16 20 21 24 25 26 24 23 24 24 26 24 25 26 28 31 32 33 33 33 30 32 31 31 32 30 27
8 8 10 9 4 2 9 15 19 19 20 23 22 23 22 22 23 23 24 25 29 32 34 34 34 33 33 31 30 30 30 26
9 9 10 12 12 10 5 6 9 12 16 18 22 20 19 19 19 20 21 22 24 28 31 33 32 32 32 31 30 29 30 30
9 8 9 10 11 10 8 5 4 6 10 15 17 19 20 21 20 20 21 21 22 24 27 29 33 33 32 32 30 31 32 32
8 8 8 9 10 9 7 4 2 2 5 8 12 15 17 18 19 21 21 20 22 23 26 32 36 35 34 32 31 32 30 32
11 9 8 8 7 7 7 6 6 6 7 9 11 13 16 19 20 19 20 20 23 22 18 26 28 31 32 31 31 29 30 30
8 7 7 8 8 8 9 10 9 8 9 9 10 12 14 17 19 20 21 22 21 20 18 20 21 27 28 29 31 29 29 28
7 6 7 9 10 13 15 16 16 16 14 13 13 13 14 14 16 19 20 20 19 17 21 21 23 23 23 25 26 25 27 28
7 6 8 10 11 14 15 15 17 17 16 15 15 14 14 14 15 17 18 21 21 21 21 22 20 21 22 24 23 24 23 24
8 7 7 11 12 13 13 14 16 16 16 17 18 18 18 18 19 20 19 19 19 17 15 14 15 17 12 15 16 19 23 24
10 8 8 10 10 9 9 11 14 13 14 15 16 17 17 17 15 15 17 19 19 18 16 16 16 17 19 21 23 24 29 28
11 9 8 9 7 7 8 10 11 11 11 13 15 15 15 16 17 15 14 15 17 17 16 16 17 17 18 19 22 23 27 30
12 11 10 7 6 6 8 9 10 11 12 13 15 16 16 16 17 17 16 14 16 19 19 19 18 15 16 20 18 19 21 24
13 11 9 7 7 7 8 8 8 9 11 13 15 16 15 15 16 17 18 17 16 17 19 19 19 19 23 25 23 19 17 19
12 10 11 10 8 8 7 8 9 11 12 14 15 15 15 15 16 17 18 18 18 17 18 19 18 20 23 21 17 14 14 15
Wind_Direction
259 261 254 230 228 212 212 205 208 208 210 213 219 221 222 223 225 226 224 221 221 223 228 229 227 230 233 232 236 239 240 244
255 262 234 222 222 220 212 209 205 204 210 212 216 220 222 225 227 228 227 224 222 221 226 229 227 229 231 233 235 236 244 239
221 247 238 217 227 224 223 214 211 211 216 218 221 221 227 228 230 230 229 227 225 224 223 227 227 227 230 231 232 233 237 238
239 248 236 236 235 233 227 222 216 215 218 221 226 232 235 231 228 230 229 228 228 227 228 226 229 227 228 225 226 227 231 228
111 94 70 261 257 244 234 227 218 220 215 223 226 230 232 235 236 235 233 228 228 231 230 231 230 230 230 229 225 225 225 229
103 84 77 73 74 191 219 226 225 221 218 222 230 239 243 248 247 243 238 235 231 228 230 231 232 231 234 231 227 224 228 231
122 105 89 78 72 78 108 160 191 212 219 224 231 246 248 249 254 255 254 247 242 238 233 233 234 235 238 237 232 226 226 230
145 126 100 81 80 79 81 100 155 201 216 225 231 239 246 254 256 258 259 253 248 245 241 234 233 238 238 238 235 232 230 232
151 131 114 98 81 61 67 65 83 194 234 249 252 255 255 258 258 254 258 257 257 257 234 241 244 239 239 239 239 240 237 232
158 131 103 90 79 68 49 32 13 355 327 300 282 277 275 273 271 268 266 265 263 264 258 234 234 241 243 240 239 235 239 240
153 121 107 85 73 64 47 35 32 10 352 338 322 311 297 288 283 274 269 269 271 265 265 252 247 240 243 243 239 237 235 239
149 116 86 68 59 53 41 35 31 26 17 7 359 348 334 318 302 294 286 285 286 274 261 258 252 247 241 238 241 244 238 235
140 123 107 84 67 59 50 46 45 40 37 35 26 13 0 349 336 329 316 295 280 275 272 269 271 260 249 250 253 254 250 247
143 129 101 83 72 64 57 47 43 37 34 35 32 28 22 15 11 6 356 348 344 331 321 293 282 284 269 259 259 258 257 252
143 126 103 93 90 81 65 50 40 30 26 25 23 17 12 7 9 13 5 358 351 343 338 333 321 300 284 275 261 276 267 255
149 140 129 124 113 92 68 54 38 22 16 18 14 9 4 359 356 357 7 6 357 351 349 343 336 333 329 315 292 271 266 266
154 150 142 134 104 82 54 42 28 18 16 18 12 8 3 360 356 352 355 8 3 352 351 349 349 355 348 336 329 321 304 286
161 151 134 122 88 65 51 40 26 18 17 17 15 6 3 358 358 356 353 358 4 0 353 351 350 358 346 338 336 330 326 319
145 137 114 90 75 59 55 35 27 22 20 22 18 10 1 360 356 358 357 356 2 1 0 356 359 3 358 357 6 8 15 15